| time (UTC) | temp F | wind direction | speed knots | gust knots | rain 1hr in | rain 24hr in | rain mn in | humidity % | barometer mb |
| 20260509145055 | 74 | 241 | 7.8 | 12.2 | 0.00 | 0.00 | 0.00 | 41 | 1014.8 |
| 20260509144554 | 75 | 251 | 8.7 | 12.2 | 0.00 | 0.00 | 0.00 | 41 | 1014.9 |
| 20260509144054 | 75 | 251 | 7.8 | 11.3 | 0.00 | 0.00 | 0.00 | 39 | 1014.9 |
| 20260509143553 | 75 | 219 | 7.0 | 11.3 | 0.00 | 0.00 | 0.00 | 38 | 1014.9 |
| 20260509143053 | 75 | 243 | 6.1 | 11.3 | 0.00 | 0.00 | 0.00 | 38 | 1014.8 |
| 20260509142552 | 74 | 233 | 7.8 | 13.9 | 0.00 | 0.00 | 0.00 | 39 | 1014.9 |
| 20260509142051 | 75 | 207 | 7.0 | 13.0 | 0.00 | 0.00 | 0.00 | 37 | 1014.8 |
| 20260509141554 | 75 | 255 | 8.7 | 13.0 | 0.00 | 0.00 | 0.00 | 37 | 1014.9 |
| 20260509141050 | 76 | 259 | 7.8 | 12.2 | 0.00 | 0.00 | 0.00 | 36 | 1015.0 |
| 20260509140548 | 76 | 225 | 6.1 | 12.2 | 0.00 | 0.00 | 0.00 | 36 | 1015.0 |
| 20260509140055 | 76 | 171 | 4.3 | 12.2 | 0.00 | 0.00 | 0.00 | 35 | 1015.0 |
| 20260509135547 | 75 | 221 | 8.7 | 16.5 | 0.00 | 0.00 | 0.00 | 37 | 1014.9 |
| 20260509135046 | 76 | 252 | 9.6 | 14.8 | 0.00 | 0.00 | 0.00 | 37 | 1015.0 |
| 20260509134648 | 76 | 243 | 7.0 | 12.2 | 0.00 | 0.00 | 0.00 | 37 | 1015.0 |
| 20260509134044 | 76 | 195 | 4.3 | 12.2 | 0.00 | 0.00 | 0.00 | 37 | 1015.1 |
| 20260509133543 | 75 | 270 | 9.6 | 13.9 | 0.00 | 0.00 | 0.00 | 37 | 1015.2 |
| 20260509133042 | 75 | 260 | 9.6 | 13.9 | 0.00 | 0.00 | 0.00 | 38 | 1015.1 |
| 20260509132545 | 76 | 270 | 9.6 | 13.0 | 0.00 | 0.00 | 0.00 | 37 | 1015.2 |
| 20260509132043 | 76 | 202 | 6.1 | 11.3 | 0.00 | 0.00 | 0.00 | 37 | 1015.1 |
| 20260509131540 | 76 | 218 | 7.0 | 13.9 | 0.00 | 0.00 | 0.00 | 37 | 1015.2 |
| 20260509131039 | 76 | 165 | 5.2 | 13.9 | 0.00 | 0.00 | 0.00 | 39 | 1015.2 |
| 20260509130540 | 76 | 234 | 8.7 | 14.8 | 0.00 | 0.00 | 0.00 | 39 | 1015.3 |
| 20260509130038 | 76 | 218 | 9.6 | 14.8 | 0.00 | 0.00 | 0.00 | 38 | 1015.3 |
| 20260509125536 | 76 | 249 | 8.7 | 12.2 | 0.00 | 0.00 | 0.00 | 38 | 1015.4 |
| 20260509125038 | 76 | 205 | 6.1 | 13.9 | 0.00 | 0.00 | 0.00 | 38 | 1015.4 |
| 20260509124536 | 76 | 267 | 9.6 | 14.8 | 0.00 | 0.00 | 0.00 | 39 | 1015.6 |
| 20260509124035 | 77 | 252 | 7.0 | 15.6 | 0.00 | 0.00 | 0.00 | 38 | 1015.6 |
| 20260509123537 | 76 | 180 | 7.8 | 15.6 | 0.00 | 0.00 | 0.00 | 38 | 1015.6 |
| 20260509123034 | 76 | 219 | 5.2 | 12.2 | 0.00 | 0.00 | 0.00 | 39 | 1015.7 |
| 20260509122532 | 76 | 252 | 7.8 | 13.0 | 0.00 | 0.00 | 0.00 | 39 | 1015.6 |
| 20260509122032 | 76 | 217 | 9.6 | 13.9 | 0.00 | 0.00 | 0.00 | 38 | 1015.7 |
| 20260509121536 | 76 | 234 | 8.7 | 15.6 | 0.00 | 0.00 | 0.00 | 39 | 1015.7 |
| 20260509121031 | 75 | 259 | 11.3 | 15.6 | 0.00 | 0.00 | 0.00 | 39 | 1015.7 |
| 20260509120531 | 76 | 225 | 8.7 | 18.2 | 0.00 | 0.00 | 0.00 | 39 | 1015.7 |
| 20260509120030 | 76 | 257 | 8.7 | 17.4 | 0.00 | 0.00 | 0.00 | 39 | 1015.6 |
| 20260509115528 | 76 | 223 | 9.6 | 17.4 | 0.00 | 0.00 | 0.00 | 41 | 1015.6 |
| 20260509115028 | 75 | 278 | 12.2 | 17.4 | 0.00 | 0.00 | 0.00 | 41 | 1015.6 |
| 20260509114529 | 75 | 238 | 11.3 | 17.4 | 0.00 | 0.00 | 0.00 | 42 | 1015.6 |
| 20260509114028 | 76 | 224 | 9.6 | 18.2 | 0.00 | 0.00 | 0.00 | 42 | 1015.6 |
| 20260509113527 | 75 | 210 | 12.2 | 18.2 | 0.00 | 0.00 | 0.00 | 41 | 1015.8 |
| 20260509113028 | 75 | 174 | 7.8 | 15.6 | 0.00 | 0.00 | 0.00 | 41 | 1015.8 |
| 20260509112525 | 75 | 236 | 9.6 | 14.8 | 0.00 | 0.00 | 0.00 | 43 | 1015.8 |
| 20260509112126 | 75 | 228 | 11.3 | 17.4 | 0.00 | 0.00 | 0.00 | 41 | 1016.0 |
| 20260509111524 | 75 | 221 | 9.6 | 17.4 | 0.00 | 0.00 | 0.00 | 41 | 1015.9 |
| 20260509111025 | 75 | 221 | 10.4 | 17.4 | 0.00 | 0.00 | 0.00 | 42 | 1016.0 |
| 20260509110524 | 75 | 289 | 11.3 | 15.6 | 0.00 | 0.00 | 0.00 | 42 | 1015.9 |
| 20260509110025 | 75 | 271 | 8.7 | 14.8 | 0.00 | 0.00 | 0.00 | 43 | 1016.0 |
| 20260509105526 | 75 | 223 | 6.1 | 16.5 | 0.00 | 0.00 | 0.00 | 43 | 1016.0 |
| 20260509105024 | 75 | 208 | 9.6 | 16.5 | 0.00 | 0.00 | 0.00 | 43 | 1016.0 |
| 20260509104534 | 75 | 238 | 8.7 | 13.9 | 0.00 | 0.00 | 0.00 | 43 | 1016.0 |
| 20260509104021 | 75 | 203 | 8.7 | 13.9 | 0.00 | 0.00 | 0.00 | 43 | 1016.0 |
| 20260509103521 | 75 | 211 | 9.6 | 14.8 | 0.00 | 0.00 | 0.00 | 43 | 1016.0 |
| 20260509103021 | 75 | 205 | 7.0 | 20.0 | 0.00 | 0.00 | 0.00 | 43 | 1016.0 |
| 20260509102520 | 75 | 192 | 10.4 | 20.0 | 0.00 | 0.00 | 0.00 | 40 | 1016.0 |
| 20260509102019 | 75 | 254 | 9.6 | 15.6 | 0.00 | 0.00 | 0.00 | 40 | 1016.0 |
| 20260509101519 | 76 | 219 | 8.7 | 15.6 | 0.00 | 0.00 | 0.00 | 37 | 1016.1 |
| 20260509101021 | 76 | 217 | 7.8 | 14.8 | 0.00 | 0.00 | 0.00 | 38 | 1016.1 |
| 20260509100517 | 75 | 189 | 9.6 | 14.8 | 0.00 | 0.00 | 0.00 | 37 | 1016.2 |
| 20260509100017 | 76 | 215 | 9.6 | 16.5 | 0.00 | 0.00 | 0.00 | 37 | 1016.2 |
| 20260509095516 | 76 | 194 | 8.7 | 16.5 | 0.00 | 0.00 | 0.00 | 38 | 1016.3 |
| 20260509095014 | 75 | 216 | 9.6 | 16.5 | 0.00 | 0.00 | 0.00 | 39 | 1016.4 |
| 20260509094513 | 75 | 252 | 11.3 | 14.8 | 0.00 | 0.00 | 0.00 | 39 | 1016.4 |
| 20260509094012 | 75 | 265 | 9.6 | 13.0 | 0.00 | 0.00 | 0.00 | 40 | 1016.5 |
| 20260509093515 | 76 | 237 | 7.8 | 12.2 | 0.00 | 0.00 | 0.00 | 40 | 1016.6 |
| 20260509093010 | 75 | 221 | 4.3 | 12.2 | 0.00 | 0.00 | 0.00 | 41 | 1016.5 |
| 20260509092508 | 75 | 237 | 7.0 | 13.0 | 0.00 | 0.00 | 0.00 | 43 | 1016.5 |
| 20260509092008 | 75 | 269 | 4.3 | 13.0 | 0.00 | 0.00 | 0.00 | 45 | 1016.5 |
| 20260509091507 | 75 | 254 | 4.3 | 11.3 | 0.00 | 0.00 | 0.00 | 44 | 1016.4 |
| 20260509091008 | 75 | 231 | 6.1 | 12.2 | 0.00 | 0.00 | 0.00 | 44 | 1016.6 |
| 20260509090507 | 74 | 257 | 8.7 | 12.2 | 0.00 | 0.00 | 0.00 | 45 | 1016.6 |
| 20260509090006 | 75 | 246 | 5.2 | 10.4 | 0.00 | 0.00 | 0.00 | 43 | 1016.7 |
| 20260509085504 | 75 | 273 | 6.1 | 10.4 | 0.00 | 0.00 | 0.00 | 42 | 1016.7 |
| 20260509085003 | 75 | 268 | 7.8 | 11.3 | 0.00 | 0.00 | 0.00 | 41 | 1016.6 |
| 20260509084504 | 75 | 186 | 4.3 | 9.6 | 0.00 | 0.00 | 0.00 | 41 | 1016.6 |
| 20260509084001 | 75 | 215 | 3.5 | 11.3 | 0.00 | 0.00 | 0.00 | 41 | 1016.6 |
| 20260509083559 | 74 | 273 | 4.3 | 11.3 | 0.00 | 0.00 | 0.00 | 41 | 1016.7 |
| 20260509083106 | 73 | 243 | 7.0 | 9.6 | 0.00 | 0.00 | 0.00 | 42 | 1016.7 |
| 20260509082558 | 73 | 268 | 7.0 | 10.4 | 0.00 | 0.00 | 0.00 | 42 | 1016.8 |
| 20260509082057 | 73 | 182 | 5.2 | 10.4 | 0.00 | 0.00 | 0.00 | 43 | 1016.8 |
| 20260509081556 | 73 | 275 | 5.2 | 9.6 | 0.00 | 0.00 | 0.00 | 47 | 1016.8 |
| 20260509081055 | 73 | 236 | 4.3 | 8.7 | 0.00 | 0.00 | 0.00 | 50 | 1016.9 |
| 20260509080552 | 73 | 260 | 3.5 | 8.7 | 0.00 | 0.00 | 0.00 | 52 | 1016.8 |
| 20260509080057 | 72 | 240 | 5.2 | 8.7 | 0.00 | 0.00 | 0.00 | 53 | 1016.7 |
| 20260509075552 | 72 | 219 | 3.5 | 9.6 | 0.00 | 0.00 | 0.00 | 51 | 1016.7 |
| 20260509075051 | 72 | 217 | 4.3 | 9.6 | 0.00 | 0.00 | 0.00 | 50 | 1016.7 |
| 20260509074549 | 71 | 252 | 5.2 | 8.7 | 0.00 | 0.00 | 0.00 | 54 | 1016.7 |
| 20260509074049 | 71 | 207 | 2.6 | 7.0 | 0.00 | 0.00 | 0.00 | 53 | 1016.8 |
| 20260509073547 | 71 | 277 | 4.3 | 7.0 | 0.00 | 0.00 | 0.00 | 54 | 1016.7 |
| 20260509073046 | 71 | 244 | 2.6 | 6.1 | 0.00 | 0.00 | 0.00 | 54 | 1016.8 |
| 20260509072548 | 70 | 200 | 1.7 | 7.0 | 0.00 | 0.00 | 0.00 | 55 | 1016.9 |
| 20260509072040 | 70 | 230 | 1.7 | 7.0 | 0.00 | 0.00 | 0.00 | 54 | 1016.8 |
| 20260509071538 | 70 | 255 | 2.6 | 5.2 | 0.00 | 0.00 | 0.00 | 56 | 1016.8 |
| 20260509071037 | 70 | 292 | 2.6 | 4.3 | 0.00 | 0.00 | 0.00 | 56 | 1016.9 |
| 20260509070537 | 70 | 258 | 0.9 | 5.2 | 0.00 | 0.00 | 0.00 | 56 | 1016.8 |
| 20260509070040 | 70 | 269 | 2.6 | 5.2 | 0.00 | 0.00 | 0.00 | 57 | 1016.9 |
| 20260509065536 | 69 | 276 | 1.7 | 3.5 | 0.00 | 0.00 | 0.00 | 58 | 1016.8 |
| 20260509065035 | 70 | 315 | 0.0 | 2.6 | 0.00 | 0.00 | 0.00 | 59 | 1016.9 |
| 20260509064535 | 69 | 317 | 0.9 | 2.6 | 0.00 | 0.00 | 0.00 | 59 | 1016.8 |
| 20260509064033 | 70 | 331 | 0.9 | 2.6 | 0.00 | 0.00 | 0.00 | 62 | 1016.9 |
| 20260509063534 | 69 | 318 | 0.9 | 3.5 | 0.00 | 0.00 | 0.00 | 62 | 1016.9 |
| 20260509063031 | 67 | 266 | 0.0 | 5.2 | 0.00 | 0.00 | 0.00 | 66 | 1016.7 |
| 20260509062530 | 67 | 277 | 1.7 | 5.2 | 0.00 | 0.00 | 0.00 | 67 | 1016.8 |
| 20260509062032 | 67 | 282 | 0.9 | 3.5 | 0.00 | 0.00 | 0.00 | 67 | 1016.8 |
| 20260509061529 | 66 | 272 | 0.9 | 3.5 | 0.00 | 0.00 | 0.00 | 68 | 1016.8 |
| 20260509061031 | 66 | 248 | 0.9 | 3.5 | 0.00 | 0.00 | 0.00 | 69 | 1016.9 |
| 20260509060528 | 66 | 319 | 1.7 | 3.5 | 0.00 | 0.00 | 0.00 | 69 | 1016.8 |
| 20260509060028 | 66 | 329 | 0.9 | 4.3 | 0.00 | 0.00 | 0.00 | 70 | 1016.8 |
| 20260509055529 | 65 | 355 | 0.9 | 3.5 | 0.00 | 0.00 | 0.00 | 70 | 1016.8 |
| 20260509055026 | 65 | 313 | 0.9 | 2.6 | 0.00 | 0.00 | 0.00 | 71 | 1016.7 |
| 20260509054529 | 65 | 350 | 1.7 | 2.6 | 0.00 | 0.00 | 0.00 | 71 | 1016.8 |
| 20260509054025 | 64 | 337 | 0.9 | 2.6 | 0.00 | 0.00 | 0.00 | 71 | 1016.8 |
| 20260509053525 | 64 | 330 | 1.7 | 2.6 | 0.00 | 0.00 | 0.00 | 70 | 1016.7 |
| 20260509053035 | 64 | 294 | 0.9 | 2.6 | 0.00 | 0.00 | 0.00 | 70 | 1016.7 |
| 20260509052525 | 64 | 182 | 0.9 | 2.6 | 0.00 | 0.00 | 0.00 | 71 | 1016.7 |
| 20260509052023 | 64 | 201 | 0.0 | 1.7 | 0.00 | 0.00 | 0.00 | 71 | 1016.8 |
| 20260509051534 | 64 | 250 | 0.0 | 1.7 | 0.00 | 0.00 | 0.00 | 69 | 1016.8 |
| 20260509051021 | 64 | 213 | 0.9 | 2.6 | 0.00 | 0.00 | 0.00 | 69 | 1016.9 |
| 20260509050520 | 64 | 211 | 0.0 | 2.6 | 0.00 | 0.00 | 0.00 | 69 | 1016.9 |
| 20260509050020 | 63 | 213 | 0.0 | 1.7 | 0.00 | 0.00 | 0.00 | 69 | 1017.0 |
| 20260509045519 | 63 | 255 | 0.0 | 1.7 | 0.00 | 0.00 | 0.00 | 70 | 1017.0 |
| 20260509045020 | 63 | 264 | 0.0 | 3.5 | 0.00 | 0.00 | 0.00 | 70 | 1017.0 |
| 20260509044518 | 63 | 269 | 0.0 | 3.5 | 0.00 | 0.00 | 0.00 | 70 | 1017.0 |
| 20260509044017 | 62 | 351 | 0.0 | 2.6 | 0.00 | 0.00 | 0.00 | 70 | 1017.0 |
| 20260509043519 | 62 | 355 | 0.9 | 2.6 | 0.00 | 0.00 | 0.00 | 70 | 1017.0 |
| 20260509043017 | 63 | 333 | 0.9 | 2.6 | 0.00 | 0.00 | 0.00 | 69 | 1016.9 |
| 20260509042517 | 63 | 107 | 0.0 | 1.7 | 0.00 | 0.00 | 0.00 | 69 | 1016.9 |
| 20260509042018 | 62 | 103 | 0.0 | 2.6 | 0.00 | 0.00 | 0.00 | 70 | 1016.9 |
| 20260509041517 | 62 | 96 | 0.0 | 3.5 | 0.00 | 0.00 | 0.00 | 70 | 1016.9 |
| 20260509041016 | 61 | 81 | 1.7 | 4.3 | 0.00 | 0.00 | 0.00 | 71 | 1016.9 |
| 20260509040516 | 61 | 46 | 1.7 | 4.3 | 0.00 | 0.00 | 0.00 | 72 | 1017.0 |
| 20260509040016 | 61 | 42 | 2.6 | 4.3 | 0.00 | 0.00 | 0.00 | 72 | 1017.0 |
| 20260509035515 | 61 | 340 | 0.0 | 2.6 | 0.00 | 0.00 | 0.00 | 71 | 1016.9 |
| 20260509035013 | 62 | 75 | 0.0 | 3.5 | 0.00 | 0.00 | 0.00 | 71 | 1016.6 |
| 20260509034512 | 62 | 71 | 0.0 | 3.5 | 0.00 | 0.00 | 0.00 | 70 | 1016.6 |
| 20260509034011 | 61 | 43 | 1.7 | 5.2 | 0.00 | 0.00 | 0.00 | 71 | 1016.6 |
| 20260509033509 | 61 | 71 | 2.6 | 5.2 | 0.00 | 0.00 | 0.00 | 72 | 1016.6 |
| 20260509033009 | 61 | 67 | 2.6 | 4.3 | 0.00 | 0.00 | 0.00 | 72 | 1016.7 |
| 20260509032509 | 62 | 15 | 0.9 | 3.5 | 0.00 | 0.00 | 0.00 | 72 | 1016.6 |
| 20260509032009 | 61 | 147 | 0.9 | 2.6 | 0.00 | 0.00 | 0.00 | 72 | 1016.6 |
| 20260509031507 | 61 | 91 | 0.9 | 5.2 | 0.00 | 0.00 | 0.00 | 73 | 1016.5 |
| 20260509031009 | 60 | 95 | 2.6 | 5.2 | 0.00 | 0.00 | 0.00 | 74 | 1016.6 |
| 20260509030507 | 60 | 81 | 2.6 | 5.2 | 0.00 | 0.00 | 0.00 | 75 | 1016.6 |
| 20260509030008 | 59 | 46 | 2.6 | 5.2 | 0.00 | 0.00 | 0.00 | 76 | 1016.7 |
| 20260509025508 | 60 | 34 | 2.6 | 5.2 | 0.00 | 0.00 | 0.00 | 74 | 1016.7 |
| 20260509025006 | 61 | 10 | 3.5 | 5.2 | 0.00 | 0.00 | 0.00 | 74 | 1016.6 |
| 20260509024506 | 61 | 92 | 0.9 | 3.5 | 0.00 | 0.00 | 0.00 | 74 | 1016.3 |
| 20260509024005 | 60 | 82 | 0.9 | 4.3 | 0.00 | 0.00 | 0.00 | 75 | 1016.5 |
| 20260509023506 | 60 | 71 | 0.9 | 7.8 | 0.00 | 0.00 | 0.00 | 76 | 1016.5 |
| 20260509023004 | 59 | 49 | 5.2 | 7.8 | 0.00 | 0.00 | 0.00 | 77 | 1016.4 |
| 20260509022503 | 59 | 355 | 3.5 | 7.0 | 0.00 | 0.00 | 0.00 | 77 | 1016.5 |
| 20260509022003 | 59 | 28 | 5.2 | 7.0 | 0.00 | 0.00 | 0.00 | 76 | 1016.5 |
| 20260509021502 | 59 | 55 | 0.9 | 5.2 | 0.00 | 0.00 | 0.00 | 77 | 1016.5 |
| 20260509021003 | 59 | 42 | 4.3 | 5.2 | 0.00 | 0.00 | 0.00 | 77 | 1016.7 |
| 20260509020601 | 60 | 34 | 2.6 | 5.2 | 0.00 | 0.00 | 0.00 | 76 | 1016.6 |
| 20260509020059 | 60 | 17 | 2.6 | 3.5 | 0.00 | 0.00 | 0.00 | 75 | 1016.6 |
| 20260509015559 | 61 | 40 | 0.9 | 2.6 | 0.00 | 0.00 | 0.00 | 75 | 1016.4 |
| 20260509015058 | 61 | 39 | 0.9 | 2.6 | 0.00 | 0.00 | 0.00 | 75 | 1016.6 |
| 20260509014556 | 61 | 54 | 0.0 | 3.5 | 0.00 | 0.00 | 0.00 | 75 | 1016.8 |
| 20260509014056 | 61 | 45 | 1.7 | 3.5 | 0.00 | 0.00 | 0.00 | 74 | 1016.8 |
| 20260509013557 | 62 | 49 | 0.9 | 3.5 | 0.00 | 0.00 | 0.00 | 73 | 1016.8 |
| 20260509013156 | 62 | 63 | 0.9 | 4.3 | 0.00 | 0.00 | 0.00 | 74 | 1017.0 |
| 20260509012554 | 62 | 67 | 2.6 | 5.2 | 0.00 | 0.00 | 0.00 | 74 | 1017.0 |
| 20260509012054 | 62 | 78 | 1.7 | 3.5 | 0.00 | 0.00 | 0.00 | 75 | 1017.2 |
| 20260509011553 | 61 | 72 | 2.6 | 4.3 | 0.00 | 0.00 | 0.00 | 75 | 1017.3 |
| 20260509011053 | 61 | 56 | 2.6 | 4.3 | 0.00 | 0.00 | 0.00 | 76 | 1017.3 |
| 20260509010556 | 61 | 44 | 1.7 | 3.5 | 0.00 | 0.00 | 0.00 | 76 | 1017.5 |
| 20260509010051 | 61 | 44 | 1.7 | 3.5 | 0.00 | 0.00 | 0.00 | 75 | 1017.5 |
| 20260509005550 | 62 | 52 | 0.0 | 2.6 | 0.00 | 0.00 | 0.00 | 74 | 1017.6 |
| 20260509005049 | 62 | 61 | 0.0 | 0.0 | 0.00 | 0.00 | 0.00 | 74 | 1017.6 |
| 20260509004547 | 62 | 60 | 0.0 | 1.7 | 0.00 | 0.00 | 0.00 | 74 | 1017.6 |
| 20260509004046 | 62 | 59 | 0.0 | 2.6 | 0.00 | 0.00 | 0.00 | 73 | 1017.6 |
| 20260509003546 | 62 | 59 | 0.9 | 2.6 | 0.00 | 0.00 | 0.00 | 73 | 1017.7 |
| 20260509003046 | 63 | 60 | 0.0 | 3.5 | 0.00 | 0.00 | 0.00 | 73 | 1017.8 |
| 20260509002545 | 63 | 63 | 0.9 | 3.5 | 0.00 | 0.00 | 0.00 | 73 | 1017.7 |
| 20260509002044 | 63 | 51 | 0.0 | 0.9 | 0.00 | 0.00 | 0.00 | 73 | 1017.9 |
| 20260509001545 | 62 | 48 | 0.0 | 0.9 | 0.00 | 0.00 | 0.00 | 73 | 1018.1 |
| 20260509001042 | 62 | 48 | 0.0 | 2.6 | 0.00 | 0.00 | 0.00 | 74 | 1018.2 |
| 20260509000546 | 62 | 48 | 0.9 | 3.5 | 0.00 | 0.00 | 0.00 | 74 | 1018.0 |
| 20260509000041 | 63 | 45 | 1.7 | 3.5 | 0.00 | 0.00 | 0.00 | 73 | 1018.2 |
| 20260508235539 | 63 | 49 | 1.7 | 3.5 | 0.00 | 0.00 | 0.00 | 72 | 1018.1 |
| 20260508235041 | 64 | 64 | 0.0 | 0.0 | 0.00 | 0.00 | 0.00 | 71 | 1018.1 |
| 20260508234538 | 64 | 67 | 0.0 | 0.0 | 0.00 | 0.00 | 0.00 | 71 | 1018.1 |
| 20260508234041 | 64 | 59 | 0.0 | 0.0 | 0.00 | 0.00 | 0.00 | 71 | 1018.2 |
| 20260508233537 | 64 | 59 | 0.0 | 0.0 | 0.00 | 0.00 | 0.00 | 71 | 1018.2 |
| 20260508233047 | 64 | 58 | 0.0 | 0.0 | 0.00 | 0.00 | 0.00 | 71 | 1018.3 |
| 20260508232535 | 64 | 57 | 0.0 | 0.0 | 0.00 | 0.00 | 0.00 | 70 | 1018.5 |
| 20260508232034 | 64 | 57 | 0.0 | 0.9 | 0.00 | 0.00 | 0.00 | 70 | 1018.6 |
| 20260508231537 | 64 | 57 | 0.0 | 3.5 | 0.00 | 0.00 | 0.00 | 70 | 1018.5 |
| 20260508231036 | 64 | 55 | 0.0 | 5.2 | 0.00 | 0.00 | 0.00 | 70 | 1018.6 |
| 20260508230533 | 65 | 37 | 2.6 | 5.2 | 0.00 | 0.00 | 0.00 | 69 | 1018.7 |
| 20260508230032 | 65 | 259 | 0.9 | 3.5 | 0.00 | 0.00 | 0.00 | 69 | 1018.7 |
| 20260508225533 | 65 | 259 | 0.9 | 3.5 | 0.00 | 0.00 | 0.00 | 69 | 1018.7 |
| 20260508225031 | 65 | 245 | 2.6 | 4.3 | 0.00 | 0.00 | 0.00 | 68 | 1018.7 |
| 20260508224530 | 65 | 241 | 2.6 | 4.3 | 0.00 | 0.00 | 0.00 | 69 | 1018.7 |
| 20260508224030 | 65 | 242 | 2.6 | 3.5 | 0.00 | 0.00 | 0.00 | 68 | 1018.7 |
| 20260508223529 | 65 | 246 | 1.7 | 3.5 | 0.00 | 0.00 | 0.00 | 68 | 1018.7 |
| 20260508223029 | 65 | 315 | 1.7 | 3.5 | 0.00 | 0.00 | 0.00 | 68 | 1018.8 |
| 20260508222529 | 65 | 329 | 1.7 | 3.5 | 0.00 | 0.00 | 0.00 | 67 | 1018.8 |
| 20260508222028 | 66 | 316 | 2.6 | 3.5 | 0.00 | 0.00 | 0.00 | 67 | 1018.9 |
| 20260508221527 | 66 | 267 | 1.7 | 5.2 | 0.00 | 0.00 | 0.00 | 66 | 1018.8 |
| 20260508221029 | 66 | 237 | 2.6 | 5.2 | 0.00 | 0.00 | 0.00 | 65 | 1018.7 |
| 20260508220528 | 66 | 261 | 3.5 | 5.2 | 0.00 | 0.00 | 0.00 | 65 | 1018.8 |
| 20260508220026 | 66 | 252 | 3.5 | 4.3 | 0.00 | 0.00 | 0.00 | 65 | 1018.9 |
| 20260508215525 | 66 | 254 | 1.7 | 3.5 | 0.00 | 0.00 | 0.00 | 64 | 1018.9 |
| 20260508215024 | 66 | 306 | 1.7 | 4.3 | 0.00 | 0.00 | 0.00 | 65 | 1018.9 |
| 20260508214527 | 66 | 303 | 1.7 | 3.5 | 0.00 | 0.00 | 0.00 | 63 | 1018.9 |
| 20260508214024 | 66 | 261 | 1.7 | 5.2 | 0.00 | 0.00 | 0.00 | 63 | 1018.8 |
| 20260508213523 | 66 | 263 | 1.7 | 7.0 | 0.00 | 0.00 | 0.00 | 63 | 1018.9 |
| 20260508213023 | 66 | 271 | 2.6 | 7.0 | 0.00 | 0.00 | 0.00 | 63 | 1018.9 |
| 20260508212522 | 66 | 249 | 3.5 | 6.1 | 0.00 | 0.00 | 0.00 | 62 | 1019.0 |
| 20260508212023 | 66 | 258 | 2.6 | 6.1 | 0.00 | 0.00 | 0.00 | 62 | 1018.9 |
| 20260508211529 | 66 | 276 | 2.6 | 6.1 | 0.00 | 0.00 | 0.00 | 61 | 1019.0 |
| 20260508211028 | 67 | 253 | 2.6 | 7.0 | 0.00 | 0.00 | 0.00 | 61 | 1018.9 |
| 20260508210519 | 67 | 253 | 2.6 | 8.7 | 0.00 | 0.00 | 0.00 | 60 | 1018.7 |
| 20260508210018 | 67 | 212 | 4.3 | 7.0 | 0.00 | 0.00 | 0.00 | 60 | 1018.6 |
| 20260508205517 | 67 | 215 | 3.5 | 7.8 | 0.00 | 0.00 | 0.00 | 60 | 1018.8 |
| 20260508205019 | 67 | 247 | 2.6 | 7.8 | 0.00 | 0.00 | 0.00 | 59 | 1018.9 |
| 20260508204517 | 67 | 255 | 5.2 | 7.8 | 0.00 | 0.00 | 0.00 | 58 | 1019.1 |
| 20260508204016 | 67 | 250 | 4.3 | 7.8 | 0.00 | 0.00 | 0.00 | 57 | 1019.0 |
| 20260508203516 | 67 | 240 | 4.3 | 7.8 | 0.00 | 0.00 | 0.00 | 57 | 1018.9 |
| 20260508203017 | 67 | 265 | 5.2 | 7.8 | 0.00 | 0.00 | 0.00 | 56 | 1019.0 |
| 20260508202516 | 67 | 225 | 4.3 | 7.0 | 0.00 | 0.00 | 0.00 | 56 | 1018.9 |
| 20260508202016 | 67 | 259 | 1.7 | 4.3 | 0.00 | 0.00 | 0.00 | 56 | 1019.0 |
| 20260508201516 | 67 | 341 | 1.7 | 5.2 | 0.00 | 0.00 | 0.00 | 57 | 1019.0 |
| 20260508201016 | 67 | 10 | 3.5 | 5.2 | 0.00 | 0.00 | 0.00 | 56 | 1018.9 |
| 20260508200516 | 68 | 313 | 0.0 | 3.5 | 0.00 | 0.00 | 0.00 | 55 | 1018.6 |
| 20260508200016 | 68 | 292 | 0.9 | 6.1 | 0.00 | 0.00 | 0.00 | 55 | 1018.5 |
| 20260508195515 | 68 | 315 | 2.6 | 6.1 | 0.00 | 0.00 | 0.00 | 54 | 1018.4 |
| 20260508195018 | 68 | 240 | 3.5 | 6.1 | 0.00 | 0.00 | 0.00 | 53 | 1018.2 |
| 20260508194516 | 68 | 242 | 4.3 | 7.0 | 0.00 | 0.00 | 0.00 | 53 | 1018.3 |
| 20260508194016 | 68 | 227 | 4.3 | 7.0 | 0.00 | 0.00 | 0.00 | 54 | 1018.3 |
| 20260508193514 | 68 | 219 | 3.5 | 7.0 | 0.00 | 0.00 | 0.00 | 54 | 1018.3 |
| 20260508193014 | 68 | 267 | 5.2 | 7.0 | 0.00 | 0.00 | 0.00 | 54 | 1018.5 |
| 20260508192514 | 68 | 268 | 3.5 | 7.0 | 0.00 | 0.00 | 0.00 | 55 | 1018.4 |
| 20260508192014 | 68 | 296 | 2.6 | 6.1 | 0.00 | 0.00 | 0.00 | 57 | 1018.3 |
| 20260508191519 | 68 | 257 | 3.5 | 6.1 | 0.00 | 0.00 | 0.00 | 57 | 1018.1 |
| 20260508191013 | 68 | 254 | 1.7 | 5.2 | 0.00 | 0.00 | 0.00 | 58 | 1018.2 |
| 20260508190515 | 68 | 267 | 2.6 | 5.2 | 0.00 | 0.00 | 0.00 | 59 | 1018.1 |
| 20260508190018 | 68 | 260 | 3.5 | 5.2 | 0.00 | 0.00 | 0.00 | 59 | 1018.3 |
| 20260508185513 | 68 | 281 | 1.7 | 2.6 | 0.00 | 0.00 | 0.00 | 59 | 1018.1 |
| 20260508185012 | 68 | 311 | 0.9 | 3.5 | 0.00 | 0.00 | 0.00 | 59 | 1017.9 |
| 20260508184513 | 68 | 320 | 1.7 | 3.5 | 0.00 | 0.00 | 0.00 | 58 | 1017.9 |
| 20260508184011 | 68 | 10 | 0.9 | 3.5 | 0.00 | 0.00 | 0.00 | 59 | 1017.7 |
| 20260508183511 | 68 | 136 | 0.9 | 2.6 | 0.00 | 0.00 | 0.00 | 59 | 1017.6 |
| 20260508183012 | 68 | 148 | 0.9 | 2.6 | 0.00 | 0.00 | 0.00 | 60 | 1017.6 |
| 20260508182515 | 67 | 67 | 0.9 | 2.6 | 0.00 | 0.00 | 0.00 | 60 | 1017.5 |
| 20260508182011 | 68 | 27 | 0.0 | 3.5 | 0.00 | 0.00 | 0.00 | 59 | 1017.5 |
| 20260508181511 | 68 | 345 | 1.7 | 7.0 | 0.00 | 0.00 | 0.00 | 59 | 1017.7 |
| 20260508181011 | 68 | 349 | 3.5 | 7.0 | 0.00 | 0.00 | 0.00 | 59 | 1017.7 |
| 20260508180512 | 68 | 311 | 4.3 | 7.0 | 0.00 | 0.00 | 0.00 | 59 | 1017.5 |
| 20260508180011 | 67 | 316 | 1.7 | 5.2 | 0.00 | 0.00 | 0.00 | 59 | 1017.3 |
| 20260508175511 | 67 | 271 | 2.6 | 5.2 | 0.00 | 0.00 | 0.00 | 59 | 1017.0 |
| 20260508175010 | 67 | 262 | 1.7 | 6.1 | 0.00 | 0.00 | 0.00 | 59 | 1017.0 |
| 20260508174510 | 68 | 313 | 2.6 | 7.8 | 0.00 | 0.00 | 0.00 | 59 | 1017.1 |
| 20260508174010 | 68 | 280 | 2.6 | 8.7 | 0.00 | 0.00 | 0.00 | 59 | 1016.9 |
| 20260508173510 | 68 | 288 | 4.3 | 8.7 | 0.00 | 0.00 | 0.00 | 58 | 1016.8 |
| 20260508173010 | 68 | 282 | 4.3 | 7.8 | 0.00 | 0.00 | 0.00 | 58 | 1016.7 |
| 20260508172510 | 68 | 270 | 5.2 | 8.7 | 0.00 | 0.00 | 0.00 | 57 | 1016.7 |
| 20260508172010 | 68 | 246 | 5.2 | 8.7 | 0.00 | 0.00 | 0.00 | 56 | 1016.5 |
| 20260508171522 | 69 | 259 | 5.2 | 9.6 | 0.00 | 0.00 | 0.00 | 56 | 1016.6 |
| 20260508171010 | 69 | 248 | 7.0 | 12.2 | 0.00 | 0.00 | 0.00 | 55 | 1016.7 |
| 20260508170510 | 69 | 232 | 7.8 | 11.3 | 0.00 | 0.00 | 0.00 | 54 | 1016.8 |
| 20260508170009 | 69 | 226 | 7.0 | 10.4 | 0.00 | 0.00 | 0.00 | 54 | 1016.9 |
| 20260508165509 | 69 | 228 | 6.1 | 9.6 | 0.00 | 0.00 | 0.00 | 54 | 1016.9 |
| 20260508165008 | 69 | 259 | 5.2 | 7.8 | 0.00 | 0.00 | 0.00 | 54 | 1016.8 |
| 20260508164508 | 69 | 232 | 4.3 | 8.7 | 0.00 | 0.00 | 0.00 | 54 | 1016.9 |
| 20260508164008 | 69 | 255 | 6.1 | 9.6 | 0.00 | 0.00 | 0.00 | 53 | 1016.8 |
| 20260508163507 | 69 | 261 | 7.0 | 11.3 | 0.00 | 0.00 | 0.00 | 53 | 1016.9 |
| 20260508163007 | 70 | 259 | 7.8 | 11.3 | 0.00 | 0.00 | 0.00 | 52 | 1016.9 |
| 20260508162507 | 70 | 232 | 7.8 | 11.3 | 0.00 | 0.00 | 0.00 | 51 | 1016.7 |
| 20260508162007 | 70 | 240 | 6.1 | 9.6 | 0.00 | 0.00 | 0.00 | 52 | 1016.7 |
| 20260508161507 | 70 | 263 | 6.1 | 9.6 | 0.00 | 0.00 | 0.00 | 52 | 1016.7 |
| 20260508161008 | 70 | 263 | 7.0 | 13.0 | 0.00 | 0.00 | 0.00 | 51 | 1016.7 |
| 20260508160506 | 70 | 229 | 5.2 | 13.0 | 0.00 | 0.00 | 0.00 | 51 | 1016.6 |
| 20260508160012 | 70 | 209 | 7.0 | 11.3 | 0.00 | 0.00 | 0.00 | 51 | 1016.5 |
| 20260508155510 | 70 | 218 | 8.7 | 13.0 | 0.00 | 0.00 | 0.00 | 51 | 1016.7 |
| 20260508155007 | 70 | 221 | 7.0 | 12.2 | 0.00 | 0.00 | 0.00 | 51 | 1016.5 |
| 20260508154506 | 70 | 260 | 8.7 | 12.2 | 0.00 | 0.00 | 0.00 | 50 | 1016.6 |
| 20260508154006 | 71 | 200 | 7.8 | 11.3 | 0.00 | 0.00 | 0.00 | 50 | 1016.7 |
| 20260508153505 | 70 | 227 | 5.2 | 11.3 | 0.00 | 0.00 | 0.00 | 50 | 1016.7 |
| 20260508153005 | 70 | 256 | 8.7 | 13.0 | 0.00 | 0.00 | 0.00 | 51 | 1016.7 |
| 20260508152506 | 70 | 273 | 10.4 | 13.0 | 0.00 | 0.00 | 0.00 | 51 | 1016.7 |
| 20260508152103 | 70 | 267 | 9.6 | 12.2 | 0.00 | 0.00 | 0.00 | 51 | 1016.7 |
| 20260508151503 | 71 | 232 | 6.1 | 13.0 | 0.00 | 0.00 | 0.00 | 50 | 1016.8 |
| 20260508151004 | 71 | 263 | 9.6 | 13.0 | 0.00 | 0.00 | 0.00 | 50 | 1016.7 |
| 20260508150506 | 71 | 240 | 7.8 | 12.2 | 0.00 | 0.00 | 0.00 | 51 | 1016.7 |
| 20260508150003 | 71 | 239 | 7.0 | 12.2 | 0.00 | 0.00 | 0.00 | 50 | 1016.6 |
| 20260508145502 | 71 | 241 | 10.4 | 12.2 | 0.00 | 0.00 | 0.00 | 50 | 1016.5 |